Wetterdaten: Freitag, 18.05.2018
Datum Zeit Temp. A. Aussen2m Boden Feuchte A. Feuchte 2 Luftdruck Regen Wind Richtung Richtung Sonnenschein
18.05.2018 00:00 10,3 C 10,4 C 10,8 C 71 % 73 % 1020,8 hPa 0,0 l/m 6,7 km/h (2 Bft) NO 40 0 min
18.05.2018 00:05 10,4 C 10,5 C 10,8 C 70 % 73 % 1019,8 hPa 0,0 l/m 10,3 km/h (2 Bft) N 5 0 min
18.05.2018 00:10 10,4 C 10,6 C 10,8 C 70 % 72 % 1019,8 hPa 0,0 l/m 9,7 km/h (2 Bft) SO 145 0 min
18.05.2018 00:15 10,5 C 10,6 C 10,8 C 69 % 72 % 1019,8 hPa 0,0 l/m 9,1 km/h (2 Bft) W-SW 240 0 min
18.05.2018 00:20 10,5 C 10,6 C 10,8 C 69 % 72 % 1019,8 hPa 0,0 l/m 7,9 km/h (2 Bft) N-NO 20 0 min
18.05.2018 00:25 10,5 C 10,6 C 10,8 C 69 % 72 % 1019,8 hPa 0,0 l/m 16,3 km/h (3 Bft) W-NW 295 0 min
18.05.2018 00:30 10,5 C 10,6 C 10,8 C 69 % 71 % 1019,8 hPa 0,0 l/m 12,1 km/h (2 Bft) N-NW 330 0 min
18.05.2018 00:35 10,5 C 10,6 C 10,8 C 69 % 71 % 1020,8 hPa 0,0 l/m 10,9 km/h (2 Bft) W-SW 255 0 min
18.05.2018 00:40 10,4 C 10,6 C 10,8 C 69 % 72 % 1020,8 hPa 0,0 l/m 11,5 km/h (2 Bft) O-NO 60 0 min
18.05.2018 00:45 10,5 C 10,6 C 10,8 C 69 % 72 % 1020,8 hPa 0,0 l/m 7,3 km/h (2 Bft) NO 35 0 min
18.05.2018 00:50 10,3 C 10,6 C 10,8 C 69 % 71 % 1019,8 hPa 0,0 l/m 21,8 km/h (4 Bft) NO 35 0 min
18.05.2018 00:55 10,4 C 10,6 C 10,8 C 69 % 71 % 1019,8 hPa 0,0 l/m 11,5 km/h (2 Bft) NO 50 0 min
18.05.2018 01:00 10,4 C 10,6 C 10,8 C 69 % 71 % 1019,8 hPa 0,0 l/m 8,5 km/h (2 Bft) N 10 0 min
18.05.2018 01:05 10,3 C 10,6 C 10,8 C 69 % 71 % 1019,8 hPa 0,0 l/m 16,3 km/h (3 Bft) NO 50 0 min
18.05.2018 01:10 10,3 C 10,6 C 10,8 C 69 % 71 % 1019,8 hPa 0,0 l/m 12,1 km/h (2 Bft) N-NO 30 0 min
18.05.2018 01:15 10,3 C 10,6 C 10,8 C 69 % 71 % 1019,8 hPa 0,0 l/m 14,5 km/h (3 Bft) N-NO 25 0 min
18.05.2018 01:20 10,3 C 10,6 C 10,8 C 70 % 71 % 1019,8 hPa 0,0 l/m 6,1 km/h (2 Bft) NO 45 0 min
18.05.2018 01:25 10,2 C 10,6 C 10,8 C 70 % 71 % 1019,8 hPa 0,0 l/m 10,9 km/h (2 Bft) N-NO 30 0 min
18.05.2018 01:30 10,2 C 10,6 C 10,8 C 69 % 71 % 1019,8 hPa 0,0 l/m 12,7 km/h (3 Bft) NO 45 0 min
18.05.2018 01:35 10,2 C 10,5 C 10,8 C 70 % 71 % 1020,8 hPa 0,0 l/m 7,3 km/h (2 Bft) N-NO 20 0 min
18.05.2018 01:40 10,2 C 10,6 C 10,8 C 70 % 71 % 1020,8 hPa 0,0 l/m 5,4 km/h (2 Bft) N 355 0 min
18.05.2018 01:45 10,2 C 10,5 C 10,8 C 70 % 72 % 1020,8 hPa 0,0 l/m 7,3 km/h (2 Bft) W 270 0 min
18.05.2018 01:50 10,2 C 10,4 C 10,8 C 70 % 72 % 1019,8 hPa 0,0 l/m 6,7 km/h (2 Bft) NO 50 0 min
18.05.2018 01:55 10,1 C 10,4 C 10,8 C 70 % 71 % 1019,8 hPa 0,0 l/m 10,9 km/h (2 Bft) N-NO 20 0 min
18.05.2018 02:00 10,0 C 10,4 C 10,8 C 70 % 71 % 1019,8 hPa 0,0 l/m 10,9 km/h (2 Bft) N 10 0 min
18.05.2018 02:05 10,0 C 10,4 C 10,8 C 70 % 71 % 1019,8 hPa 0,0 l/m 10,3 km/h (2 Bft) NW 325 0 min
18.05.2018 02:10 9,9 C 10,4 C 10,8 C 70 % 71 % 1019,8 hPa 0,0 l/m 11,5 km/h (2 Bft) S-SW 195 0 min
18.05.2018 02:15 9,9 C 10,3 C 10,8 C 69 % 71 % 1019,8 hPa 0,0 l/m 12,7 km/h (3 Bft) N 10 0 min
18.05.2018 02:20 10,0 C 10,3 C 10,8 C 70 % 71 % 1019,8 hPa 0,0 l/m 10,9 km/h (2 Bft) N-NO 25 0 min
18.05.2018 02:25 10,0 C 10,2 C 10,8 C 69 % 71 % 1019,8 hPa 0,0 l/m 11,5 km/h (2 Bft) N-NO 30 0 min
18.05.2018 02:30 10,0 C 10,2 C 10,8 C 70 % 71 % 1019,8 hPa 0,0 l/m 7,3 km/h (2 Bft) N 0 0 min
18.05.2018 02:35 9,9 C 10,2 C 10,8 C 70 % 71 % 1018,8 hPa 0,0 l/m 10,3 km/h (2 Bft) N-NO 20 0 min
18.05.2018 02:40 9,9 C 10,2 C 10,8 C 70 % 71 % 1018,8 hPa 0,0 l/m 15,1 km/h (3 Bft) N 10 0 min
18.05.2018 02:45 9,9 C 10,2 C 10,8 C 70 % 71 % 1018,8 hPa 0,0 l/m 11,5 km/h (2 Bft) N-NO 25 0 min
18.05.2018 02:50 9,7 C 10,1 C 10,8 C 70 % 71 % 1019,8 hPa 0,0 l/m 13,9 km/h (3 Bft) N 10 0 min
18.05.2018 02:55 9,7 C 10,1 C 10,8 C 70 % 71 % 1019,8 hPa 0,0 l/m 15,1 km/h (3 Bft) NO 35 0 min
18.05.2018 03:00 9,6 C 10,0 C 10,8 C 70 % 71 % 1019,8 hPa 0,0 l/m 18,2 km/h (3 Bft) N-NO 30 0 min
18.05.2018 03:05 9,6 C 10,0 C 10,8 C 70 % 71 % 1019,8 hPa 0,0 l/m 10,9 km/h (2 Bft) W-NW 285 0 min
18.05.2018 03:10 9,5 C 9,9 C 10,8 C 70 % 71 % 1019,8 hPa 0,0 l/m 14,5 km/h (3 Bft) NW 315 0 min
18.05.2018 03:15 9,5 C 9,9 C 10,8 C 70 % 71 % 1019,8 hPa 0,0 l/m 12,1 km/h (2 Bft) N 0 0 min
18.05.2018 03:20 9,4 C 9,8 C 10,8 C 70 % 71 % 1019,8 hPa 0,0 l/m 15,1 km/h (3 Bft) NO 35 0 min
18.05.2018 03:25 9,4 C 9,8 C 10,8 C 70 % 71 % 1019,8 hPa 0,0 l/m 9,7 km/h (2 Bft) N-NO 20 0 min
18.05.2018 03:30 9,4 C 9,7 C 10,8 C 70 % 71 % 1019,8 hPa 0,0 l/m 14,5 km/h (3 Bft) N-NO 20 0 min
18.05.2018 03:35 9,3 C 9,7 C 10,8 C 70 % 71 % 1019,8 hPa 0,0 l/m 9,7 km/h (2 Bft) N 5 0 min
18.05.2018 03:40 9,4 C 9,7 C 10,8 C 70 % 71 % 1019,8 hPa 0,0 l/m 9,7 km/h (2 Bft) N-NO 15 0 min
18.05.2018 03:45 9,3 C 9,6 C 10,8 C 70 % 72 % 1019,8 hPa 0,0 l/m 8,5 km/h (2 Bft) N 350 0 min
18.05.2018 03:50 9,2 C 9,5 C 10,8 C 70 % 72 % 1019,8 hPa 0,0 l/m 6,1 km/h (2 Bft) W-NW 285 0 min
18.05.2018 03:55 9,1 C 9,4 C 10,8 C 71 % 72 % 1019,8 hPa 0,0 l/m 7,9 km/h (2 Bft) W-NW 285 0 min
18.05.2018 04:00 9,1 C 9,3 C 10,8 C 70 % 72 % 1019,8 hPa 0,0 l/m 12,1 km/h (2 Bft) N 10 0 min
18.05.2018 04:05 9,1 C 9,3 C 10,8 C 70 % 72 % 1019,8 hPa 0,0 l/m 8,5 km/h (2 Bft) W 275 0 min
18.05.2018 04:10 9,1 C 9,3 C 10,8 C 71 % 73 % 1019,8 hPa 0,0 l/m 7,9 km/h (2 Bft) W 270 0 min
18.05.2018 04:15 9,1 C 9,3 C 10,8 C 71 % 73 % 1019,8 hPa 0,0 l/m 10,3 km/h (2 Bft) W-NW 295 0 min
18.05.2018 04:20 9,1 C 9,2 C 10,8 C 71 % 73 % 1019,8 hPa 0,0 l/m 10,3 km/h (2 Bft) N-NW 335 0 min
18.05.2018 04:25 9,0 C 9,2 C 10,8 C 71 % 73 % 1019,8 hPa 0,0 l/m 9,7 km/h (2 Bft) W-NW 295 0 min
18.05.2018 04:30 9,1 C 9,2 C 10,8 C 70 % 72 % 1019,8 hPa 0,0 l/m 8,5 km/h (2 Bft) NW 305 0 min
18.05.2018 04:35 9,1 C 9,2 C 10,8 C 70 % 72 % 1019,8 hPa 0,0 l/m 7,9 km/h (2 Bft) O-NO 65 0 min
18.05.2018 04:40 9,1 C 9,2 C 10,8 C 70 % 72 % 1019,8 hPa 0,0 l/m 7,9 km/h (2 Bft) W-NW 285 0 min
18.05.2018 04:45 9,0 C 9,2 C 10,8 C 70 % 72 % 1019,8 hPa 0,0 l/m 15,7 km/h (3 Bft) N-NO 15 0 min
18.05.2018 04:50 9,1 C 9,2 C 10,8 C 70 % 72 % 1019,8 hPa 0,0 l/m 9,7 km/h (2 Bft) NW 315 0 min
18.05.2018 04:55 9,1 C 9,2 C 10,8 C 69 % 71 % 1019,8 hPa 0,0 l/m 13,3 km/h (3 Bft) N 0 0 min
18.05.2018 05:00 9,1 C 9,2 C 10,8 C 68 % 70 % 1019,8 hPa 0,0 l/m 9,7 km/h (2 Bft) N-NO 15 0 min
18.05.2018 05:05 9,1 C 9,2 C 10,8 C 68 % 71 % 1019,8 hPa 0,0 l/m 12,7 km/h (3 Bft) N 350 0 min
18.05.2018 05:10 9,0 C 9,2 C 10,8 C 69 % 70 % 1019,8 hPa 0,0 l/m 12,7 km/h (3 Bft) N-NW 345 0 min
18.05.2018 05:15 9,1 C 9,2 C 10,8 C 69 % 70 % 1019,8 hPa 0,0 l/m 4,8 km/h (1 Bft) N-NO 25 0 min
18.05.2018 05:20 9,1 C 9,2 C 10,8 C 69 % 71 % 1019,8 hPa 0,0 l/m 4,2 km/h (1 Bft) W-NW 295 0 min
18.05.2018 05:25 9,0 C 9,2 C 10,8 C 69 % 72 % 1019,8 hPa 0,0 l/m 3,0 km/h (1 Bft) N 5 0 min
18.05.2018 05:30 9,1 C 9,2 C 10,8 C 70 % 71 % 1019,8 hPa 0,0 l/m 6,1 km/h (2 Bft) N-NO 25 0 min
18.05.2018 05:35 9,0 C 9,2 C 10,8 C 69 % 71 % 1019,8 hPa 0,0 l/m 7,3 km/h (2 Bft) N-NO 25 0 min
18.05.2018 05:40 9,0 C 9,3 C 10,8 C 70 % 72 % 1019,8 hPa 0,0 l/m 6,1 km/h (2 Bft) W-NW 285 0 min
18.05.2018 05:45 8,9 C 9,1 C 10,8 C 70 % 71 % 1019,8 hPa 0,0 l/m 10,3 km/h (2 Bft) N-NW 340 0 min
18.05.2018 05:50 8,8 C 9,1 C 10,8 C 69 % 71 % 1019,8 hPa 0,0 l/m 9,7 km/h (2 Bft) N 0 0 min
18.05.2018 05:55 8,8 C 9,1 C 10,8 C 69 % 71 % 1019,8 hPa 0,0 l/m 10,9 km/h (2 Bft) N-NW 345 0 min
18.05.2018 06:00 8,8 C 9,1 C 10,8 C 69 % 71 % 1019,8 hPa 0,0 l/m 9,1 km/h (2 Bft) N 0 0 min
18.05.2018 06:05 8,7 C 9,0 C 10,8 C 70 % 71 % 1019,8 hPa 0,0 l/m 10,9 km/h (2 Bft) N-NW 345 0 min
18.05.2018 06:10 8,6 C 8,9 C 10,8 C 69 % 71 % 1019,8 hPa 0,0 l/m 6,1 km/h (2 Bft) W 280 0 min
18.05.2018 06:15 8,5 C 8,9 C 10,8 C 70 % 71 % 1019,8 hPa 0,0 l/m 9,7 km/h (2 Bft) W 260 0 min
18.05.2018 06:20 8,5 C 8,8 C 10,8 C 70 % 72 % 1019,8 hPa 0,0 l/m 13,3 km/h (3 Bft) O-SO 115 0 min
18.05.2018 06:25 8,4 C 8,7 C 10,8 C 70 % 71 % 1019,8 hPa 0,0 l/m 8,5 km/h (2 Bft) W-NW 295 0 min
18.05.2018 06:30 8,4 C 8,6 C 10,8 C 70 % 71 % 1019,8 hPa 0,0 l/m 6,1 km/h (2 Bft) N-NW 340 0 min
18.05.2018 06:35 8,3 C 8,5 C 10,8 C 70 % 71 % 1020,8 hPa 0,0 l/m 6,7 km/h (2 Bft) NW 315 0 min
18.05.2018 06:40 8,3 C 8,5 C 10,8 C 70 % 72 % 1020,8 hPa 0,0 l/m 8,5 km/h (2 Bft) W 265 0 min
18.05.2018 06:45 8,3 C 8,5 C 10,8 C 69 % 72 % 1020,8 hPa 0,0 l/m 4,8 km/h (1 Bft) NO 45 0 min
18.05.2018 06:50 8,4 C 8,4 C 10,8 C 69 % 71 % 1019,8 hPa 0,0 l/m 7,3 km/h (2 Bft) NW 310 0 min
18.05.2018 06:55 8,4 C 8,5 C 10,8 C 69 % 71 % 1019,8 hPa 0,0 l/m 4,8 km/h (1 Bft) N 350 0 min
18.05.2018 07:00 8,4 C 8,5 C 10,8 C 69 % 71 % 1019,8 hPa 0,0 l/m 10,9 km/h (2 Bft) N-NO 15 0 min
18.05.2018 07:05 8,4 C 8,5 C 10,8 C 69 % 71 % 1019,8 hPa 0,0 l/m 9,1 km/h (2 Bft) N-NO 30 0 min
18.05.2018 07:10 8,4 C 8,5 C 10,8 C 69 % 71 % 1019,8 hPa 0,0 l/m 6,7 km/h (2 Bft) NW 320 0 min
18.05.2018 07:15 8,4 C 8,5 C 10,8 C 69 % 71 % 1019,8 hPa 0,0 l/m 11,5 km/h (2 Bft) N-NW 330 0 min
18.05.2018 07:20 8,5 C 8,5 C 10,8 C 68 % 71 % 1020,8 hPa 0,0 l/m 8,5 km/h (2 Bft) O-NO 65 0 min
18.05.2018 07:25 8,5 C 8,6 C 10,8 C 69 % 71 % 1020,8 hPa 0,0 l/m 4,8 km/h (1 Bft) SW 225 0 min
18.05.2018 07:30 8,5 C 8,5 C 10,8 C 69 % 71 % 1020,8 hPa 0,0 l/m 10,9 km/h (2 Bft) NO 40 0 min
18.05.2018 07:35 8,6 C 8,6 C 10,8 C 69 % 71 % 1020,8 hPa 0,0 l/m 5,4 km/h (2 Bft) W-SW 245 0 min
18.05.2018 07:40 8,6 C 8,6 C 10,8 C 69 % 72 % 1020,8 hPa 0,0 l/m 7,3 km/h (2 Bft) W-NW 285 0 min
18.05.2018 07:45 8,8 C 8,7 C 10,8 C 69 % 71 % 1020,8 hPa 0,0 l/m 4,2 km/h (1 Bft) W 275 0 min
18.05.2018 07:50 8,9 C 8,9 C 10,8 C 69 % 72 % 1019,8 hPa 0,0 l/m 5,4 km/h (2 Bft) W-NW 295 0 min
18.05.2018 07:55 9,3 C 9,0 C 10,8 C 67 % 71 % 1019,8 hPa 0,0 l/m 9,7 km/h (2 Bft) N 5 5 min
18.05.2018 08:00 9,4 C 9,1 C 10,8 C 67 % 70 % 1019,8 hPa 0,0 l/m 7,9 km/h (2 Bft) N-NO 25 3 min
18.05.2018 08:05 9,6 C 9,3 C 10,8 C 66 % 71 % 1020,8 hPa 0,0 l/m 4,8 km/h (1 Bft) N-NW 335 4 min
18.05.2018 08:10 9,7 C 9,3 C 10,8 C 67 % 70 % 1020,8 hPa 0,0 l/m 8,5 km/h (2 Bft) NW 315 3 min
18.05.2018 08:15 9,5 C 9,3 C 10,8 C 66 % 70 % 1020,8 hPa 0,0 l/m 8,5 km/h (2 Bft) N-NW 335 2 min
18.05.2018 08:20 9,5 C 9,3 C 10,8 C 66 % 69 % 1019,8 hPa 0,0 l/m 7,9 km/h (2 Bft) NW 325 0 min
18.05.2018 08:25 9,6 C 9,4 C 10,8 C 66 % 69 % 1019,8 hPa 0,0 l/m 8,5 km/h (2 Bft) NO 35 0 min
18.05.2018 08:30 9,7 C 9,4 C 10,8 C 67 % 71 % 1019,8 hPa 0,0 l/m 4,2 km/h (1 Bft) NW 310 2 min
18.05.2018 08:35 9,5 C 9,4 C 10,8 C 66 % 69 % 1020,8 hPa 0,0 l/m 12,1 km/h (2 Bft) NO 45 0 min
18.05.2018 08:40 9,5 C 9,4 C 10,8 C 66 % 70 % 1020,8 hPa 0,0 l/m 7,3 km/h (2 Bft) N-NW 345 0 min
18.05.2018 08:45 9,3 C 9,3 C 10,8 C 67 % 70 % 1020,8 hPa 0,0 l/m 9,7 km/h (2 Bft) NW 325 1 min
18.05.2018 08:50 9,4 C 9,3 C 10,8 C 67 % 70 % 1020,8 hPa 0,0 l/m 7,9 km/h (2 Bft) NW 320 3 min
18.05.2018 08:55 9,6 C 9,7 C 10,8 C 66 % 69 % 1020,8 hPa 0,0 l/m 13,9 km/h (3 Bft) O 80 5 min
18.05.2018 09:00 9,8 C 10,0 C 10,8 C 66 % 69 % 1020,8 hPa 0,0 l/m 16,3 km/h (3 Bft) N 5 5 min
18.05.2018 09:05 10,2 C 10,2 C 10,8 C 65 % 68 % 1020,8 hPa 0,0 l/m 14,5 km/h (3 Bft) N 355 5 min
18.05.2018 09:10 10,4 C 10,2 C 10,8 C 64 % 68 % 1020,8 hPa 0,0 l/m 13,9 km/h (3 Bft) W-SW 255 5 min
18.05.2018 09:15 11,0 C 10,4 C 10,8 C 63 % 68 % 1020,8 hPa 0,0 l/m 4,8 km/h (1 Bft) N 350 5 min
18.05.2018 09:20 10,9 C 10,7 C 10,8 C 64 % 67 % 1019,8 hPa 0,0 l/m 16,9 km/h (3 Bft) NW 320 5 min
18.05.2018 09:25 10,8 C 10,6 C 10,8 C 64 % 67 % 1019,8 hPa 0,0 l/m 15,1 km/h (3 Bft) S 175 3 min
18.05.2018 09:30 10,2 C 10,3 C 10,8 C 65 % 68 % 1019,8 hPa 0,0 l/m 16,3 km/h (3 Bft) NW 315 5 min
18.05.2018 09:35 10,3 C 10,2 C 10,8 C 64 % 67 % 1019,8 hPa 0,0 l/m 12,7 km/h (3 Bft) NW 310 5 min
18.05.2018 09:40 10,2 C 10,1 C 10,8 C 64 % 67 % 1019,8 hPa 0,0 l/m 8,5 km/h (2 Bft) N 355 6 min
18.05.2018 09:45 10,2 C 10,2 C 10,8 C 64 % 67 % 1019,8 hPa 0,0 l/m 15,7 km/h (3 Bft) N 0 5 min
18.05.2018 09:50 10,5 C 10,5 C 10,8 C 62 % 66 % 1019,8 hPa 0,0 l/m 15,1 km/h (3 Bft) N-NW 330 4 min
18.05.2018 09:55 10,9 C 10,7 C 10,8 C 62 % 65 % 1019,8 hPa 0,0 l/m 12,7 km/h (3 Bft) N-NO 15 6 min
18.05.2018 10:00 11,3 C 10,9 C 10,8 C 62 % 66 % 1019,8 hPa 0,0 l/m 6,1 km/h (2 Bft) N-NO 15 4 min
18.05.2018 10:05 11,7 C 11,1 C 10,8 C 60 % 65 % 1019,8 hPa 0,0 l/m 9,1 km/h (2 Bft) N-NW 335 6 min
18.05.2018 10:10 12,0 C 11,3 C 10,8 C 61 % 67 % 1019,8 hPa 0,0 l/m 15,1 km/h (3 Bft) W-NW 300 4 min
18.05.2018 10:15 11,9 C 11,5 C 10,8 C 61 % 66 % 1019,8 hPa 0,0 l/m 16,3 km/h (3 Bft) W-NW 295 4 min
18.05.2018 10:20 11,5 C 11,4 C 10,8 C 63 % 67 % 1019,8 hPa 0,0 l/m 12,1 km/h (2 Bft) W 260 5 min
18.05.2018 10:25 11,2 C 11,3 C 10,8 C 63 % 67 % 1019,8 hPa 0,0 l/m 16,9 km/h (3 Bft) N-NW 345 4 min
18.05.2018 10:30 11,1 C 11,1 C 10,8 C 63 % 66 % 1019,8 hPa 0,0 l/m 20,6 km/h (4 Bft) W-NW 285 5 min
18.05.2018 10:35 11,4 C 11,2 C 10,8 C 63 % 67 % 1020,8 hPa 0,0 l/m 10,3 km/h (2 Bft) S 175 5 min
18.05.2018 10:40 11,3 C 11,5 C 10,8 C 62 % 67 % 1020,8 hPa 0,0 l/m 16,3 km/h (3 Bft) W-SW 240 4 min
18.05.2018 10:45 11,6 C 11,4 C 10,8 C 63 % 67 % 1020,8 hPa 0,0 l/m 16,9 km/h (3 Bft) NW 305 4 min
18.05.2018 10:50 11,8 C 11,4 C 10,8 C 60 % 65 % 1020,8 hPa 0,0 l/m 12,1 km/h (2 Bft) N-NO 20 5 min
18.05.2018 10:55 12,3 C 11,7 C 10,8 C 60 % 65 % 1020,8 hPa 0,0 l/m 10,3 km/h (2 Bft) NO 35 5 min
18.05.2018 11:00 12,6 C 11,8 C 10,8 C 58 % 63 % 1020,8 hPa 0,0 l/m 8,5 km/h (2 Bft) NO 45 5 min
18.05.2018 11:05 12,4 C 12,1 C 10,8 C 58 % 63 % 1020,8 hPa 0,0 l/m 13,3 km/h (3 Bft) N-NW 335 5 min
18.05.2018 11:10 12,2 C 12,1 C 10,8 C 57 % 62 % 1020,8 hPa 0,0 l/m 15,1 km/h (3 Bft) NO 35 5 min
18.05.2018 11:15 12,7 C 12,4 C 10,8 C 59 % 63 % 1020,8 hPa 0,0 l/m 11,5 km/h (2 Bft) NO 40 5 min
18.05.2018 11:20 13,2 C 12,6 C 10,8 C 57 % 62 % 1020,8 hPa 0,0 l/m 15,1 km/h (3 Bft) N 355 5 min
18.05.2018 11:25 13,1 C 12,7 C 10,8 C 56 % 62 % 1020,8 hPa 0,0 l/m 14,5 km/h (3 Bft) NO 35 3 min
18.05.2018 11:30 13,5 C 13,0 C 10,8 C 57 % 63 % 1020,8 hPa 0,0 l/m 12,7 km/h (3 Bft) W-NW 290 7 min
18.05.2018 11:35 13,1 C 13,0 C 10,8 C 56 % 61 % 1020,8 hPa 0,0 l/m 16,3 km/h (3 Bft) N 0 4 min
18.05.2018 11:40 12,8 C 13,0 C 10,8 C 57 % 62 % 1020,8 hPa 0,0 l/m 16,3 km/h (3 Bft) W 280 5 min
18.05.2018 11:45 13,2 C 12,9 C 10,8 C 58 % 62 % 1020,8 hPa 0,0 l/m 9,1 km/h (2 Bft) O-NO 65 5 min
18.05.2018 11:50 13,4 C 13,0 C 10,8 C 58 % 63 % 1020,8 hPa 0,0 l/m 12,7 km/h (3 Bft) N-NW 335 4 min
18.05.2018 11:55 13,5 C 13,2 C 10,8 C 56 % 62 % 1020,8 hPa 0,0 l/m 16,9 km/h (3 Bft) N-NO 15 3 min
18.05.2018 12:00 13,8 C 13,4 C 10,8 C 56 % 63 % 1020,8 hPa 0,0 l/m 10,9 km/h (2 Bft) N 0 6 min
18.05.2018 12:05 13,7 C 13,1 C 10,8 C 57 % 63 % 1019,8 hPa 0,0 l/m 23,0 km/h (4 Bft) W-NW 300 4 min
18.05.2018 12:10 13,0 C 13,0 C 10,8 C 60 % 63 % 1019,8 hPa 0,0 l/m 20,0 km/h (4 Bft) NW 305 4 min
18.05.2018 12:15 13,3 C 13,2 C 10,8 C 56 % 62 % 1019,8 hPa 0,0 l/m 11,5 km/h (2 Bft) W-NW 300 4 min
18.05.2018 12:20 13,7 C 13,4 C 10,8 C 54 % 59 % 1019,8 hPa 0,0 l/m 13,9 km/h (3 Bft) W-SW 255 6 min
18.05.2018 12:25 13,9 C 13,9 C 10,8 C 54 % 60 % 1019,8 hPa 0,0 l/m 18,2 km/h (3 Bft) N-NO 20 5 min
18.05.2018 12:30 14,5 C 14,0 C 10,8 C 54 % 59 % 1019,8 hPa 0,0 l/m 14,5 km/h (3 Bft) NO 35 5 min
18.05.2018 12:35 14,9 C 14,0 C 10,8 C 54 % 60 % 1019,8 hPa 0,0 l/m 15,7 km/h (3 Bft) W-NW 300 5 min
18.05.2018 12:40 14,8 C 14,2 C 10,8 C 56 % 59 % 1019,8 hPa 0,0 l/m 12,7 km/h (3 Bft) W-NW 290 5 min
18.05.2018 12:45 14,4 C 14,3 C 10,8 C 56 % 62 % 1019,8 hPa 0,0 l/m 20,6 km/h (4 Bft) W-NW 300 4 min
18.05.2018 12:50 14,2 C 14,3 C 10,8 C 55 % 58 % 1020,8 hPa 0,0 l/m 20,0 km/h (4 Bft) O-NO 60 3 min
18.05.2018 12:55 14,3 C 14,2 C 10,8 C 54 % 58 % 1020,8 hPa 0,0 l/m 18,2 km/h (3 Bft) N 5 5 min
18.05.2018 13:00 14,7 C 14,3 C 10,8 C 53 % 59 % 1020,8 hPa 0,0 l/m 13,3 km/h (3 Bft) NW 315 4 min
18.05.2018 13:05 14,8 C 14,5 C 10,8 C 53 % 58 % 1019,7 hPa 0,0 l/m 14,5 km/h (3 Bft) N-NO 15 6 min
18.05.2018 13:10 14,8 C 14,6 C 10,8 C 53 % 60 % 1019,7 hPa 0,0 l/m 16,9 km/h (3 Bft) N 5 5 min
18.05.2018 13:15 14,9 C 14,5 C 10,8 C 58 % 61 % 1019,7 hPa 0,0 l/m 24,2 km/h (4 Bft) W-NW 285 4 min
18.05.2018 13:20 14,7 C 14,6 C 10,8 C 57 % 62 % 1019,7 hPa 0,0 l/m 26,7 km/h (4 Bft) NW 305 5 min
18.05.2018 13:25 14,4 C 14,4 C 10,8 C 55 % 60 % 1019,7 hPa 0,0 l/m 19,4 km/h (3 Bft) NW 325 5 min
18.05.2018 13:30 15,0 C 14,5 C 10,8 C 56 % 61 % 1019,7 hPa 0,0 l/m 18,2 km/h (3 Bft) N-NO 20 5 min
18.05.2018 13:35 14,8 C 14,7 C 10,8 C 53 % 57 % 1019,7 hPa 0,0 l/m 13,3 km/h (3 Bft) W 270 5 min
18.05.2018 13:40 15,3 C 14,7 C 10,8 C 53 % 59 % 1019,7 hPa 0,0 l/m 14,5 km/h (3 Bft) W 280 5 min
18.05.2018 13:45 15,6 C 15,0 C 10,8 C 52 % 58 % 1019,7 hPa 0,0 l/m 9,7 km/h (2 Bft) N 0 5 min
18.05.2018 13:50 15,1 C 15,0 C 10,8 C 53 % 58 % 1019,7 hPa 0,0 l/m 19,4 km/h (3 Bft) W-NW 285 3 min
18.05.2018 13:55 15,2 C 15,0 C 10,8 C 53 % 58 % 1019,7 hPa 0,0 l/m 15,7 km/h (3 Bft) NW 305 4 min
18.05.2018 14:00 14,8 C 14,9 C 10,8 C 54 % 58 % 1019,7 hPa 0,0 l/m 14,5 km/h (3 Bft) W-NW 285 3 min
18.05.2018 14:05 15,0 C 15,1 C 10,8 C 54 % 59 % 1019,7 hPa 0,0 l/m 18,8 km/h (3 Bft) N 5 8 min
18.05.2018 14:10 15,2 C 15,2 C 10,8 C 53 % 57 % 1019,7 hPa 0,0 l/m 19,4 km/h (3 Bft) W-SW 240 4 min
18.05.2018 14:15 14,8 C 15,1 C 10,8 C 53 % 58 % 1019,7 hPa 0,0 l/m 23,6 km/h (4 Bft) W-SW 240 5 min
18.05.2018 14:20 14,7 C 15,0 C 10,8 C 53 % 58 % 1019,7 hPa 0,0 l/m 20,0 km/h (4 Bft) N-NW 340 3 min
18.05.2018 14:25 15,4 C 15,1 C 10,8 C 52 % 56 % 1019,7 hPa 0,0 l/m 5,4 km/h (2 Bft) W 280 5 min
18.05.2018 14:30 15,2 C 15,3 C 10,8 C 50 % 55 % 1019,7 hPa 0,0 l/m 16,3 km/h (3 Bft) W-NW 295 7 min
18.05.2018 14:35 15,8 C 15,4 C 10,8 C 51 % 54 % 1019,7 hPa 0,0 l/m 13,3 km/h (3 Bft) NW 305 6 min
18.05.2018 14:40 16,0 C 15,5 C 10,8 C 51 % 56 % 1019,7 hPa 0,0 l/m 11,5 km/h (2 Bft) N-NO 25 4 min
18.05.2018 14:45 16,2 C 15,6 C 10,8 C 50 % 57 % 1019,7 hPa 0,0 l/m 13,9 km/h (3 Bft) NW 315 3 min
18.05.2018 14:50 16,1 C 15,8 C 10,8 C 51 % 57 % 1019,7 hPa 0,0 l/m 13,3 km/h (3 Bft) N-NO 30 4 min
18.05.2018 14:55 15,7 C 15,9 C 10,8 C 52 % 57 % 1019,7 hPa 0,0 l/m 19,4 km/h (3 Bft) W-NW 285 2 min
18.05.2018 15:00 16,0 C 15,8 C 10,8 C 51 % 57 % 1019,7 hPa 0,0 l/m 15,1 km/h (3 Bft) W-NW 295 6 min
18.05.2018 15:05 15,9 C 16,0 C 10,8 C 51 % 56 % 1019,7 hPa 0,0 l/m 15,7 km/h (3 Bft) N-NO 15 4 min
18.05.2018 15:10 16,3 C 16,2 C 10,8 C 50 % 55 % 1019,7 hPa 0,0 l/m 10,9 km/h (2 Bft) N 5 6 min
18.05.2018 15:15 16,3 C 16,3 C 10,8 C 50 % 55 % 1019,7 hPa 0,0 l/m 18,2 km/h (3 Bft) W-SW 240 4 min
18.05.2018 15:20 16,7 C 16,4 C 10,8 C 50 % 56 % 1018,7 hPa 0,0 l/m 16,9 km/h (3 Bft) N 355 6 min
18.05.2018 15:25 16,1 C 16,4 C 10,8 C 48 % 52 % 1018,7 hPa 0,0 l/m 20,0 km/h (4 Bft) N-NO 15 4 min
18.05.2018 15:30 16,7 C 16,6 C 10,8 C 47 % 52 % 1018,7 hPa 0,0 l/m 8,5 km/h (2 Bft) N-NW 340 5 min
18.05.2018 15:35 16,8 C 16,7 C 10,8 C 50 % 54 % 1018,7 hPa 0,0 l/m 14,5 km/h (3 Bft) N 350 5 min
18.05.2018 15:40 16,5 C 16,5 C 10,8 C 48 % 53 % 1018,7 hPa 0,0 l/m 13,3 km/h (3 Bft) W 260 5 min
18.05.2018 15:45 16,4 C 16,4 C 10,8 C 50 % 54 % 1018,7 hPa 0,0 l/m 17,6 km/h (3 Bft) W 275 5 min
18.05.2018 15:50 17,0 C 16,6 C 10,8 C 49 % 54 % 1019,7 hPa 0,0 l/m 6,7 km/h (2 Bft) S 180 5 min
18.05.2018 15:55 16,9 C 16,5 C 10,8 C 49 % 53 % 1019,7 hPa 0,0 l/m 15,7 km/h (3 Bft) S-SW 205 4 min
18.05.2018 16:00 16,8 C 16,5 C 10,8 C 47 % 54 % 1019,7 hPa 0,0 l/m 9,1 km/h (2 Bft) W 270 1 min
18.05.2018 16:05 16,5 C 16,4 C 10,8 C 50 % 54 % 1018,7 hPa 0,0 l/m 7,9 km/h (2 Bft) N 5 4 min
18.05.2018 16:10 16,8 C 16,5 C 10,8 C 48 % 53 % 1018,7 hPa 0,0 l/m 13,9 km/h (3 Bft) N-NW 335 5 min
18.05.2018 16:15 17,1 C 16,6 C 10,8 C 48 % 53 % 1018,7 hPa 0,0 l/m 9,1 km/h (2 Bft) N 350 5 min
18.05.2018 16:20 17,1 C 16,6 C 10,8 C 49 % 54 % 1018,7 hPa 0,0 l/m 12,1 km/h (2 Bft) W-NW 295 5 min
18.05.2018 16:25 17,3 C 16,8 C 10,8 C 49 % 53 % 1018,7 hPa 0,0 l/m 17,6 km/h (3 Bft) N 5 5 min
18.05.2018 16:30 17,4 C 17,0 C 10,8 C 48 % 52 % 1018,7 hPa 0,0 l/m 12,7 km/h (3 Bft) NO 35 4 min
18.05.2018 16:35 17,0 C 17,0 C 10,8 C 47 % 51 % 1019,7 hPa 0,0 l/m 16,3 km/h (3 Bft) NW 310 4 min
18.05.2018 16:40 17,3 C 16,8 C 10,8 C 47 % 51 % 1019,7 hPa 0,0 l/m 12,1 km/h (2 Bft) W-NW 295 3 min
18.05.2018 16:45 16,8 C 16,7 C 10,8 C 47 % 52 % 1019,7 hPa 0,0 l/m 12,7 km/h (3 Bft) NW 305 5 min
18.05.2018 16:50 17,0 C 16,8 C 10,8 C 47 % 52 % 1019,7 hPa 0,0 l/m 15,1 km/h (3 Bft) S 190 3 min
18.05.2018 16:55 16,8 C 16,8 C 10,8 C 47 % 52 % 1019,7 hPa 0,0 l/m 14,5 km/h (3 Bft) N-NO 25 4 min
18.05.2018 17:00 16,9 C 17,0 C 10,8 C 47 % 50 % 1019,7 hPa 0,0 l/m 17,6 km/h (3 Bft) N-NO 30 0 min
18.05.2018 17:05 16,8 C 17,0 C 10,8 C 47 % 50 % 1018,7 hPa 0,0 l/m 15,1 km/h (3 Bft) NW 310 5 min
18.05.2018 17:10 17,0 C 17,1 C 10,8 C 48 % 51 % 1018,7 hPa 0,0 l/m 14,5 km/h (3 Bft) N 0 5 min
18.05.2018 17:15 16,9 C 17,1 C 10,8 C 47 % 50 % 1018,7 hPa 0,0 l/m 17,6 km/h (3 Bft) N-NW 345 5 min
18.05.2018 17:20 17,2 C 17,1 C 10,8 C 48 % 51 % 1018,7 hPa 0,0 l/m 9,7 km/h (2 Bft) O 90 5 min
18.05.2018 17:25 17,3 C 17,1 C 10,8 C 48 % 51 % 1018,7 hPa 0,0 l/m 14,5 km/h (3 Bft) N-NO 25 5 min
18.05.2018 17:30 17,2 C 17,2 C 10,8 C 47 % 52 % 1018,7 hPa 0,0 l/m 13,3 km/h (3 Bft) N-NO 20 2 min
18.05.2018 17:35 17,3 C 17,2 C 10,8 C 49 % 53 % 1018,7 hPa 0,0 l/m 16,9 km/h (3 Bft) NW 305 1 min
18.05.2018 17:40 17,3 C 17,1 C 10,8 C 48 % 53 % 1018,7 hPa 0,0 l/m 12,7 km/h (3 Bft) N-NW 340 4 min
18.05.2018 17:45 17,2 C 17,0 C 10,8 C 48 % 53 % 1018,7 hPa 0,0 l/m 13,3 km/h (3 Bft) N 355 6 min
18.05.2018 17:50 16,9 C 17,0 C 10,8 C 49 % 53 % 1018,7 hPa 0,0 l/m 13,9 km/h (3 Bft) N-NW 335 4 min
18.05.2018 17:55 16,6 C 17,0 C 10,8 C 49 % 52 % 1018,7 hPa 0,0 l/m 18,8 km/h (3 Bft) N-NO 15 6 min
18.05.2018 18:00 16,7 C 17,1 C 10,8 C 50 % 53 % 1018,7 hPa 0,0 l/m 12,1 km/h (2 Bft) N 350 6 min
18.05.2018 18:05 16,7 C 16,9 C 10,8 C 51 % 54 % 1018,7 hPa 0,0 l/m 15,7 km/h (3 Bft) N-NW 330 3 min
18.05.2018 18:10 16,4 C 16,8 C 10,8 C 51 % 55 % 1018,7 hPa 0,0 l/m 11,5 km/h (2 Bft) N 5 7 min
18.05.2018 18:15 16,4 C 16,6 C 10,8 C 50 % 54 % 1018,7 hPa 0,0 l/m 17,6 km/h (3 Bft) W 270 3 min
18.05.2018 18:20 16,4 C 16,6 C 10,8 C 51 % 54 % 1018,7 hPa 0,0 l/m 13,3 km/h (3 Bft) W-NW 290 5 min
18.05.2018 18:25 16,2 C 16,4 C 10,8 C 50 % 55 % 1018,7 hPa 0,0 l/m 16,9 km/h (3 Bft) N 10 6 min
18.05.2018 18:30 16,2 C 16,5 C 10,8 C 51 % 54 % 1018,7 hPa 0,0 l/m 14,5 km/h (3 Bft) N-NO 20 5 min
18.05.2018 18:35 16,3 C 16,5 C 10,8 C 51 % 55 % 1018,7 hPa 0,0 l/m 13,3 km/h (3 Bft) NO 40 4 min
18.05.2018 18:40 16,3 C 16,5 C 10,8 C 52 % 55 % 1018,7 hPa 0,0 l/m 14,5 km/h (3 Bft) N-NO 30 6 min
18.05.2018 18:45 16,2 C 16,6 C 10,8 C 52 % 54 % 1018,7 hPa 0,0 l/m 10,9 km/h (2 Bft) N 355 5 min
18.05.2018 18:50 16,0 C 16,6 C 10,8 C 51 % 54 % 1018,7 hPa 0,0 l/m 14,5 km/h (3 Bft) N-NO 25 5 min
18.05.2018 18:55 16,2 C 16,6 C 10,8 C 51 % 55 % 1018,7 hPa 0,0 l/m 12,1 km/h (2 Bft) W-NW 295 2 min
18.05.2018 19:00 16,7 C 16,6 C 10,8 C 51 % 55 % 1018,7 hPa 0,0 l/m 9,1 km/h (2 Bft) N 10 3 min
18.05.2018 19:05 16,7 C 16,6 C 10,8 C 51 % 55 % 1018,7 hPa 0,0 l/m 12,7 km/h (3 Bft) NW 325 5 min
18.05.2018 19:10 16,8 C 16,7 C 10,8 C 51 % 55 % 1018,7 hPa 0,0 l/m 12,7 km/h (3 Bft) N 355 5 min
18.05.2018 19:15 16,5 C 16,7 C 10,8 C 52 % 55 % 1018,7 hPa 0,0 l/m 12,1 km/h (2 Bft) N-NO 15 5 min
18.05.2018 19:20 16,6 C 16,6 C 10,8 C 51 % 55 % 1017,7 hPa 0,0 l/m 12,7 km/h (3 Bft) N-NO 30 5 min
18.05.2018 19:25 16,4 C 16,6 C 10,8 C 52 % 55 % 1017,7 hPa 0,0 l/m 15,7 km/h (3 Bft) N-NO 20 5 min
18.05.2018 19:30 16,1 C 16,7 C 10,8 C 52 % 55 % 1017,7 hPa 0,0 l/m 16,9 km/h (3 Bft) NO 40 5 min
18.05.2018 19:35 16,3 C 16,7 C 10,8 C 52 % 55 % 1018,7 hPa 0,0 l/m 18,2 km/h (3 Bft) NO 45 3 min
18.05.2018 19:40 16,4 C 16,7 C 10,8 C 52 % 57 % 1018,7 hPa 0,0 l/m 12,1 km/h (2 Bft) NO 55 5 min
18.05.2018 19:45 16,3 C 16,6 C 10,8 C 53 % 55 % 1018,7 hPa 0,0 l/m 16,9 km/h (3 Bft) W-NW 300 6 min
18.05.2018 19:50 16,1 C 16,6 C 10,8 C 53 % 57 % 1018,7 hPa 0,0 l/m 18,8 km/h (3 Bft) N-NO 30 5 min
18.05.2018 19:55 16,1 C 16,5 C 10,8 C 53 % 56 % 1018,7 hPa 0,0 l/m 15,7 km/h (3 Bft) N-NO 20 5 min
18.05.2018 20:00 16,0 C 16,6 C 10,8 C 53 % 56 % 1018,7 hPa 0,0 l/m 15,1 km/h (3 Bft) N-NO 25 5 min
18.05.2018 20:05 16,2 C 16,6 C 10,8 C 54 % 57 % 1018,7 hPa 0,0 l/m 12,7 km/h (3 Bft) W-SW 255 4 min
18.05.2018 20:10 16,1 C 16,5 C 10,8 C 53 % 57 % 1018,7 hPa 0,0 l/m 10,3 km/h (2 Bft) N 0 5 min
18.05.2018 20:15 15,7 C 16,3 C 10,8 C 53 % 56 % 1018,7 hPa 0,0 l/m 18,2 km/h (3 Bft) N-NO 25 5 min
18.05.2018 20:20 15,7 C 16,2 C 10,8 C 54 % 56 % 1018,7 hPa 0,0 l/m 16,3 km/h (3 Bft) N 5 2 min
18.05.2018 20:25 15,6 C 16,1 C 10,8 C 54 % 57 % 1018,7 hPa 0,0 l/m 11,5 km/h (2 Bft) SO 135 0 min
18.05.2018 20:30 15,5 C 15,9 C 10,8 C 54 % 57 % 1018,7 hPa 0,0 l/m 13,3 km/h (3 Bft) NO 45 0 min
18.05.2018 20:35 15,3 C 15,7 C 10,8 C 54 % 58 % 1017,7 hPa 0,0 l/m 8,5 km/h (2 Bft) NO 35 0 min
18.05.2018 20:40 15,3 C 15,5 C 10,8 C 55 % 58 % 1017,7 hPa 0,0 l/m 10,3 km/h (2 Bft) N 355 0 min
18.05.2018 20:45 15,1 C 15,4 C 10,8 C 55 % 58 % 1017,7 hPa 0,0 l/m 10,9 km/h (2 Bft) NW 315 0 min
18.05.2018 20:50 15,0 C 15,2 C 10,8 C 56 % 59 % 1018,7 hPa 0,0 l/m 9,7 km/h (2 Bft) N-NO 25 0 min
18.05.2018 20:55 14,7 C 15,2 C 10,8 C 56 % 59 % 1018,7 hPa 0,0 l/m 9,7 km/h (2 Bft) NW 315 0 min
18.05.2018 21:00 14,5 C 15,0 C 10,8 C 56 % 59 % 1018,7 hPa 0,0 l/m 9,1 km/h (2 Bft) N-NW 335 0 min
18.05.2018 21:05 14,4 C 15,0 C 10,8 C 57 % 60 % 1018,7 hPa 0,0 l/m 9,7 km/h (2 Bft) N 5 0 min
18.05.2018 21:10 14,2 C 14,8 C 10,8 C 57 % 60 % 1018,7 hPa 0,0 l/m 9,1 km/h (2 Bft) N-NO 20 0 min
18.05.2018 21:15 14,1 C 14,7 C 10,8 C 58 % 60 % 1018,7 hPa 0,0 l/m 7,3 km/h (2 Bft) N-NW 330 0 min
18.05.2018 21:20 14,0 C 14,6 C 10,8 C 58 % 60 % 1019,7 hPa 0,0 l/m 7,9 km/h (2 Bft) N 5 0 min
18.05.2018 21:25 13,9 C 14,5 C 10,8 C 59 % 60 % 1019,7 hPa 0,0 l/m 9,7 km/h (2 Bft) N 355 0 min
18.05.2018 21:30 13,9 C 14,4 C 10,8 C 59 % 61 % 1019,7 hPa 0,0 l/m 10,9 km/h (2 Bft) N-NW 345 0 min
18.05.2018 21:35 13,6 C 14,2 C 10,8 C 59 % 61 % 1019,8 hPa 0,0 l/m 7,9 km/h (2 Bft) N-NO 15 0 min
18.05.2018 21:40 13,6 C 14,1 C 10,8 C 60 % 62 % 1019,8 hPa 0,0 l/m 9,7 km/h (2 Bft) NO 55 0 min
18.05.2018 21:45 13,5 C 14,0 C 10,8 C 60 % 62 % 1019,8 hPa 0,0 l/m 9,1 km/h (2 Bft) N-NO 25 0 min
18.05.2018 21:50 13,3 C 13,9 C 10,8 C 61 % 62 % 1018,8 hPa 0,0 l/m 9,7 km/h (2 Bft) W 280 0 min
18.05.2018 21:55 13,1 C 13,8 C 10,8 C 62 % 63 % 1018,8 hPa 0,0 l/m 9,1 km/h (2 Bft) N-NW 330 0 min
18.05.2018 22:00 13,1 C 13,6 C 10,8 C 61 % 63 % 1018,8 hPa 0,0 l/m 10,9 km/h (2 Bft) NO 40 0 min
18.05.2018 22:05 13,0 C 13,5 C 10,8 C 62 % 63 % 1019,8 hPa 0,0 l/m 8,5 km/h (2 Bft) N 10 0 min
18.05.2018 22:10 12,9 C 13,4 C 10,8 C 62 % 63 % 1019,8 hPa 0,0 l/m 10,9 km/h (2 Bft) NO 40 0 min
18.05.2018 22:15 12,7 C 13,3 C 10,8 C 63 % 64 % 1019,8 hPa 0,0 l/m 8,5 km/h (2 Bft) N-NO 30 0 min
18.05.2018 22:20 12,6 C 13,2 C 10,8 C 63 % 64 % 1018,8 hPa 0,0 l/m 11,5 km/h (2 Bft) NO 35 0 min
18.05.2018 22:25 12,5 C 13,0 C 10,8 C 63 % 65 % 1018,8 hPa 0,0 l/m 6,1 km/h (2 Bft) N-NO 25 0 min
18.05.2018 22:30 12,4 C 12,9 C 10,8 C 63 % 65 % 1018,8 hPa 0,0 l/m 11,5 km/h (2 Bft) N-NO 25 0 min
18.05.2018 22:35 12,3 C 12,8 C 10,8 C 64 % 65 % 1018,8 hPa 0,0 l/m 3,6 km/h (1 Bft) NW 320 0 min
18.05.2018 22:40 12,2 C 12,7 C 10,8 C 64 % 66 % 1018,8 hPa 0,0 l/m 3,0 km/h (1 Bft) W-NW 290 0 min
18.05.2018 22:45 12,0 C 12,5 C 10,8 C 64 % 65 % 1018,8 hPa 0,0 l/m 8,5 km/h (2 Bft) O 95 0 min
18.05.2018 22:50 11,9 C 12,4 C 10,8 C 65 % 66 % 1018,8 hPa 0,0 l/m 7,9 km/h (2 Bft) N-NO 30 0 min
18.05.2018 22:55 11,8 C 12,3 C 10,8 C 65 % 66 % 1018,8 hPa 0,0 l/m 7,3 km/h (2 Bft) NO 35 0 min
18.05.2018 23:00 11,7 C 12,2 C 10,8 C 66 % 67 % 1018,8 hPa 0,0 l/m 12,7 km/h (3 Bft) N-NW 340 0 min
18.05.2018 23:05 11,6 C 12,1 C 10,8 C 66 % 67 % 1019,8 hPa 0,0 l/m 13,3 km/h (3 Bft) W-NW 295 0 min
18.05.2018 23:10 11,6 C 12,0 C 10,8 C 66 % 67 % 1019,8 hPa 0,0 l/m 16,3 km/h (3 Bft) NO 40 0 min
18.05.2018 23:15 11,5 C 11,9 C 10,8 C 66 % 67 % 1019,8 hPa 0,0 l/m 12,7 km/h (3 Bft) N-NO 30 0 min
18.05.2018 23:20 11,4 C 11,9 C 10,8 C 66 % 67 % 1019,8 hPa 0,0 l/m 14,5 km/h (3 Bft) N 0 0 min
18.05.2018 23:25 11,3 C 11,8 C 10,8 C 66 % 67 % 1019,8 hPa 0,0 l/m 19,4 km/h (3 Bft) N-NO 30 0 min
18.05.2018 23:30 11,2 C 11,7 C 10,8 C 66 % 68 % 1019,8 hPa 0,0 l/m 9,7 km/h (2 Bft) N 350 0 min
18.05.2018 23:35 11,2 C 11,6 C 10,8 C 67 % 68 % 1019,8 hPa 0,0 l/m 18,2 km/h (3 Bft) N 10 0 min
18.05.2018 23:40 11,1 C 11,6 C 10,8 C 66 % 68 % 1019,8 hPa 0,0 l/m 13,9 km/h (3 Bft) N 355 0 min
18.05.2018 23:45 11,0 C 11,4 C 10,8 C 66 % 68 % 1019,8 hPa 0,0 l/m 13,9 km/h (3 Bft) N-NO 15 0 min
18.05.2018 23:50 10,8 C 11,3 C 10,8 C 67 % 69 % 1019,8 hPa 0,0 l/m 11,5 km/h (2 Bft) N-NO 25 0 min
18.05.2018 23:55 10,7 C 11,3 C 10,8 C 68 % 69 % 1019,8 hPa 0,0 l/m 13,3 km/h (3 Bft) NO 55 0 min
_ Min-Zeit 06:35 06:50 00:00 15:30 17:00 19:30 - 05:25 - - -
Minimum _ 8,3 C 8,4 C 10,8 C 47 % 50 % 1017,7 hPa - 3,0 km/h (1 Bft) - - -
_ Max-Zeit 16:30 17:30 00:00 00:00 00:00 06:35 00:00 13:20 - - 14:05
Maximum _ 17,4 C 17,2 C 10,8 C 71 % 73 % 1020,8 hPa 0,0 l/m 26,7 km/h
NW (4 Bft)
- - 8 min
Durchschnitt _ 12,5 C 12,6 C 10,8 C 61 % 64 % 1019,6 hPa #0,0 l/m 12,1 km/h (2 Bft) N-NO - #10:54 h